Location: Unspecified
(0.0000°N, 0.0000°E)
Time: 21:05:58
(UTC+00:00)

Hubble Space Telescope - Pass Details

Date: 31 May 2019
Orbit: 536 x 540 km, 28.5° (Epoch: 26 June)

Event Time Altitude Azimuth Distance (km) Brightness Sun altitude
Rises 18:43:44 0° 274° (W) 2,672 5.9 -10.7°
Reaches altitude 10° 18:46:26 10° 257° (WSW) 1,782 4.3 -11.3°
Maximum altitude 18:49:31 20° 209° (SSW) 1,262 2.7 -12.0°
Drops below altitude 10° 18:52:37 10° 160° (SSE) 1,783 3.0 -12.7°
Enters shadow 18:52:43 10° 159° (SSE) 1,815 3.1 -12.7°
